This is the latest recevied weather packets stored in our database for station/object KG2V. If no packets are shown the sender has not sent any weather packets the latest 10 day(s).
| Time | Temp. | Humidity | Pressure | Rain* | Wind** | Luminosity | Snow |
|---|---|---|---|---|---|---|---|
| 1777306828 | 19.44° C | 43% | 1019.5 hPa | 0 mm | - | 672 W/m² | - |
| 1777306525 | 18.89° C | 46% | 1019.5 hPa | 0 mm | - | 668 W/m² | - |
| 1777306220 | 19.44° C | 43% | 1019.6 hPa | 0 mm | - | 662 W/m² | - |
| 1777305916 | 18.89° C | 42% | 1019.4 hPa | 0 mm | - | 656 W/m² | - |
| 1777305612 | 18.33° C | 44% | 1019.6 hPa | 0 mm | - | 652 W/m² | - |
| 1777304396 | 18.33° C | 44% | 1020 hPa | 0 mm | - | 557 W/m² | - |
| 1777304093 | 17.78° C | 46% | 1020.2 hPa | 0 mm | - | 485 W/m² | - |
| 1777302579 | 17.22° C | 46% | 1020.3 hPa | 0 mm | - | 343 W/m² | - |
| 1777302278 | 16.67° C | 53% | 1020.4 hPa | 0 mm | - | 401 W/m² | - |
| 1777300763 | 16.11° C | 53% | 1020.8 hPa | 0 mm | - | 107 W/m² | - |
| 1777300462 | 15.56° C | 51% | 1020.7 hPa | 0 mm | - | 231 W/m² | - |
| 1777300159 | 15.56° C | 55% | 1020.8 hPa | 0 mm | - | 308 W/m² | - |
| 1777299855 | 15.56° C | 52% | 1020.6 hPa | 0 mm | - | 400 W/m² | - |
| 1777299552 | 15.56° C | 57% | 1020.7 hPa | 0 mm | - | 301 W/m² | - |
| 1777299250 | 15° C | 56% | 1020.8 hPa | 0 mm | - | 282 W/m² | - |
| 1777296824 | 13.33° C | 59% | 1020.8 hPa | 0 mm | - | 183 W/m² | - |
| 1777296519 | 12.78° C | 64% | 1020.5 hPa | 0 mm | - | 100 W/m² | - |
| 1777295912 | 12.78° C | 64% | 1020.6 hPa | 0 mm | - | 75 W/m² | - |
| 1777295609 | 12.22° C | 65% | 1020.8 hPa | 0 mm | - | 39 W/m² | - |
| 1777295306 | 11.67° C | 68% | 1020.7 hPa | 0 mm | - | 37 W/m² | - |
| 1777294701 | 11.67° C | 69% | 1020.8 hPa | 0 mm | - | 36 W/m² | - |
| 1777294396 | 10.56° C | 75% | 1020.6 hPa | 0 mm | - | 39 W/m² | - |
| 1777293484 | 9.44° C | 79% | 1020.8 hPa | 0 mm | - | 36 W/m² | - |
| 1777293180 | 8.89° C | 80% | 1020.8 hPa | 0 mm | - | 35 W/m² | - |
| 1777292879 | 8.89° C | 80% | 1020.7 hPa | 0 mm | - | 32 W/m² | - |
* Rain latest hour (hover to see other rain measurements)
** Current wind speed in m/s (hover to see current wind gust speed)